Location: Dompnac
(44.5644°N, 4.1026°E)
Time: 09:14:59
(UTC+00:00)

Cosmos 2026 Rocket - Pass Details

Date: 26 January 2021
Orbit: 940 x 1000 km, 82.9° (Epoch: 26 February)

Event Time Altitude Azimuth Distance (km) Brightness Sun altitude
Rises 04:52:24 0° 355° (N) 3,717 7.0 -24.2°
Reaches altitude 10° 04:55:01 10° 0° (N) 2,770 6.3 -23.7°
Maximum altitude 05:01:14 54° 77° (ENE) 1,207 4.8 -22.6°
Drops below altitude 10° 05:07:26 10° 154° (SSE) 2,763 6.7 -21.5°
Sets 05:10:02 0° 159° (SSE) 3,707 7.4 -21.1°
